Hourly Data Report for January 23, 2015

All times are specified in Local Standard Time (LST). Add 1 hour to adjust for Daylight Saving Time where and when it is observed.

OTTAWA INTL A
ONTARIO

45°19'00.000" N
75°40'00.000" W
114.90 m
6106001
71628
YOW

Download Data

Hourly Data (January 2015)
Hourly Data Report for January 23, 2015
Temp Definition
°C
Dew Point Temp Definition
°C
Rel Hum Definition
%
Wind Dir Definition
10's deg

Wind Spd Definition
km/h
Visibility Definition
km
Stn Press Definition
kPa
Hmdx Definition


Wind Chill Definition


Weather Definition


TIME
00:00 -11.0 -14.0 79 21 7 24.1 101.04   -15 LegendNANA
01:00 -11.6 -14.4 80 20 8 24.1 100.98   -16 Clear
02:00 -11.0 -14.3 77 24 10 24.1 100.97   -16 LegendNANA
03:00 -9.6 -12.4 80 22 11 24.1 100.92   -15 LegendNANA
04:00 -9.5 -11.7 84 24 15 24.1 100.86   -16 Clear
05:00 -9.9 -11.8 86 22 15 24.1 100.79   -17 LegendNANA
06:00 -10.0 -11.5 89 19 8 24.1 100.75   -14 LegendNANA
07:00 -10.1 -11.3 91 19 9 24.1 100.67   -15 Mainly Clear
08:00 -9.3 -10.7 90 21 8 16.1 100.63   -14 LegendNANA
09:00 -5.9 -8.7 81 22 12 16.1 100.58   -11 LegendNANA
10:00 -4.0 -8.0 74 21 19 24.1 100.49   -10 Mostly Cloudy
11:00 -2.2 -7.5 67 21 21 24.1 100.36   -8 LegendNANA
12:00 -0.4 -7.5 59 20 22 24.1 100.17   -6 LegendNANA
13:00 -0.7 -6.9 63 20 30 24.1 99.99   -7 Mostly Cloudy
14:00 -0.4 -6.0 66 21 32 24.1 99.94   -7 LegendNANA
15:00 -0.4 -5.8 67 22 31 24.1 99.89   -7 LegendNANA
16:00 -1.4 -6.0 71 21 27 24.1 99.84   -8 Cloudy
17:00 -1.6 -5.8 73 21 30 24.1 99.78   -9 LegendNANA
18:00 -1.5 -5.2 76 21 20 24.1 99.78   -7 LegendNANA
19:00 -1.3 -5.0 76 21 21 24.1 99.73   -7 Cloudy
20:00 -1.4 -4.9 77 21 26 24.1 99.69   -8 LegendNANA
21:00 -1.9 -5.1 79 21 22 24.1 99.61   -8 LegendNANA
22:00 -1.8 -5.0 79 21 19 24.1 99.52   -7 Cloudy
23:00 -1.8 -4.8 80 21 19 24.1 99.43   -7 LegendNANA

Notes on Data Quality.

Legend

  • E = Estimated
  • M = Missing
  • NA = Not Available
Date modified: